Showing default

TOMORROW-R2, 56962

Orbit data source: Space-Track

TOMORROW-R2, 56962 is a payload satellite owned by Tomorrow.io (US) in SSO that was launched on Mon, 12 Jun 2023 UTC via an FALCON 9 launch vehicle from the Air Force Western Test Range (AFWTR). Payloads include a variety of satellites, spacecraft, and rockets equipped with specific instruments for various scientific and technological missions. These include communications satellites like Starlink; space stations such as the ISS; scientific satellites like the Hubble; Earth observation satellites from companies like Planet Labs, Umbra, and HawkEye 360; GPS; miniature CubeSats for education and research; and military/defense satellites.

Loading next visibility...
TOMORROW-R2 details
Identifier
56962, 2023-084AG
Orbit
SSO
Last TLE update1 day ago
Origin
Flag of USTomorrow.io (US)
ManufacturerAstro Digital
MissionOperational Commercial Radar Imaging
Bus & MotorCORVUS-XL, Unknown motor
Mass85 kg wet, 85 kg dry
Launch date (UTC)
2023-06-12 (1 year ago)
Launch vehicle
FALCON 9
Launch site
Air Force Western Test Range (AFWTR)
Object type
Payload
Rocket body
Debris
Shape & HBRBox + 1 Dish, 2 m
Radar Cross Section0.425 m², Medium (>0.1 m² and < 1m²)

Expand to show TLE details & history

TLE from 1 day ago
0 TOMORROW-R2
1 56962U 23084AG  24325.28359262  .00025429  00000-0  86045-3 0  9996
2 56962  97.5555  85.8242 0009827 178.5218 181.6053 15.30549297 79952
Epoch: 2024-11-20T06:48Z
Definitive object data (Epoch: 2024-11-20T06:48:22.402Z)
Latitude-0.00004°
Longitude-76.05104°
Altitude484.005 km
Speed7.62 km/s
True Right ascension05h 43m 17s
True Declination0° 00' 00"
Sunlit
Object was in full shadow at TLE epoch
Visualization TLE readout
Latitude7.63001°
Longitude106.12424°
Altitude469.699 km
Speed7.636 km/s
Apparent Right ascension18h 27m 32s
Apparent Declination-15° 24' 33"
Sunlit
Object is in daylight
Visualization observer readout
Local Sidereal Time07:16:57
Azimuth27.256° NE
Elevation-63.225°
Doppler factor1
Orbital elements
Apogee altitude477.861 km
Perigee altitude464.4 km
Semi-major axis6,849.268 km
Eccentricity0.0009827
Inclination97.5555°
RAAN85.8242°
Arg. of periapsis178.5218°
True anomaly181.60215°
Mean anomaly181.6053°
Eccentric anomaly181.60372°
Mean motion3.82893 °/min
BSTAR0.00086045
Orbital period94.02 mins
Loading maneuver chart data...
Loading historical data...
Loading historical data...
Loading historical data...
Loading historical data...
Loading historical data...
Loading historical data...
Loading historical data...

TOMORROW-R2 Visibility forecast

Observer location: undefined°, undefined

Span
Click to sort rows by Start time (UTC) header in descending order
Start Az.
Max El. time (UTC)
Max El. Az.
Max El.
End time (UTC)
End Az.
5 mins2024-11-21 21:01:48.241Z17.744° NNE2024-11-21 21:04:48.241Z159.436° S41.36°2024-11-21 21:06:48.241Z185.423° SSW
|